KLM3CM EGNT-EGLL

Flight info

Callsign KLM3CM
Flight time N/A
Altitude 28000
Route GIRLI P18 GASKO P16 RIBEL UP16 CROFT DCT NUGRA
Aircraft A20N/M-SDE2E3FGHIRWXY/LB1

Departure

Time N/A
Airport Newcastle International Airport (EGNT)

Arrival

Time 2026-05-04 15:19
Airport London Heathrow Airport (EGLL)
Time Latitude Longitude Altitude Speed Heading
2026-05-04 14:37 53.94514 -2.07541 26058 ft 480 kts 187°
2026-05-04 14:37 53.91222 -2.08380 26548 ft 479 kts 187°
2026-05-04 14:38 53.87973 -2.09206 27019 ft 479 kts 187°
2026-05-04 14:38 53.84677 -2.10043 27492 ft 479 kts 187°
2026-05-04 14:38 53.81379 -2.10878 27918 ft 480 kts 187°
2026-05-04 14:38 53.78079 -2.11713 28049 ft 480 kts 187°
2026-05-04 14:39 53.74770 -2.12550 28054 ft 479 kts 187°
2026-05-04 14:39 53.68175 -2.14212 28056 ft 480 kts 187°
2026-05-04 14:40 53.58327 -2.16685 28069 ft 480 kts 186°
2026-05-04 14:40 53.51718 -2.18337 28070 ft 480 kts 186°
2026-05-04 14:41 53.45096 -2.19989 28074 ft 480 kts 186°
2026-05-04 14:42 53.31912 -2.23259 28077 ft 480 kts 186°
2026-05-04 14:42 53.28645 -2.24069 27888 ft 468 kts 186°
2026-05-04 14:42 53.25473 -2.24855 27654 ft 455 kts 186°
2026-05-04 14:43 53.22388 -2.25617 27454 ft 442 kts 186°
2026-05-04 14:43 53.19388 -2.26357 27288 ft 429 kts 186°
2026-05-04 14:43 53.16480 -2.27073 27149 ft 416 kts 185°
2026-05-04 14:43 53.13671 -2.27763 27038 ft 403 kts 185°
2026-05-04 14:44 53.10942 -2.28432 26946 ft 389 kts 185°
2026-05-04 14:44 53.08306 -2.29078 26860 ft 376 kts 185°
2026-05-04 14:44 53.06607 -2.29494 26820 ft 368 kts 185°
2026-05-04 14:44 53.03340 -2.30394 26741 ft 351 kts 188°
2026-05-04 14:45 53.00975 -2.30598 26647 ft 331 kts 164°
2026-05-04 14:45 52.98949 -2.29157 26511 ft 310 kts 137°
2026-05-04 14:45 52.97425 -2.26739 26321 ft 299 kts 131°
2026-05-04 14:45 52.95953 -2.24340 26070 ft 295 kts 135°
2026-05-04 14:46 52.94936 -2.22866 25896 ft 293 kts 137°
2026-05-04 14:46 52.92791 -2.20119 25505 ft 290 kts 141°
2026-05-04 14:46 52.91710 -2.18851 25294 ft 288 kts 143°
2026-05-04 14:46 52.89492 -2.16376 24877 ft 286 kts 144°
2026-05-04 14:47 52.88391 -2.15183 24668 ft 284 kts 145°
2026-05-04 14:47 52.86199 -2.12849 24262 ft 282 kts 146°
2026-05-04 14:47 52.84551 -2.11113 23948 ft 280 kts 146°
2026-05-04 14:47 52.82914 -2.09397 23640 ft 278 kts 147°
2026-05-04 14:48 52.81810 -2.08245 23397 ft 277 kts 147°
2026-05-04 14:48 52.80202 -2.06568 23036 ft 275 kts 147°
2026-05-04 14:48 52.78044 -2.04323 22557 ft 273 kts 147°
2026-05-04 14:48 52.76445 -2.02661 22216 ft 271 kts 148°
2026-05-04 14:49 52.74853 -2.01009 21873 ft 269 kts 148°
2026-05-04 14:49 52.73806 -1.99924 21652 ft 268 kts 148°
2026-05-04 14:49 52.72235 -1.98295 21320 ft 266 kts 148°
2026-05-04 14:49 52.70673 -1.96679 20981 ft 264 kts 148°
2026-05-04 14:50 52.68620 -1.94556 20543 ft 262 kts 148°
2026-05-04 14:50 52.67077 -1.92961 20227 ft 261 kts 149°
2026-05-04 14:50 52.65543 -1.91378 19891 ft 259 kts 149°
2026-05-04 14:50 52.64022 -1.89810 19569 ft 257 kts 149°
2026-05-04 14:51 52.63021 -1.88778 19362 ft 256 kts 149°
2026-05-04 14:51 52.61509 -1.87221 19048 ft 255 kts 149°
2026-05-04 14:51 52.60010 -1.85678 18740 ft 253 kts 149°
2026-05-04 14:51 52.58035 -1.83648 18331 ft 252 kts 149°
2026-05-04 14:52 52.57036 -1.82621 18095 ft 251 kts 149°
2026-05-04 14:52 52.55087 -1.80621 17641 ft 249 kts 149°
2026-05-04 14:52 52.54113 -1.79622 17420 ft 248 kts 149°
2026-05-04 14:52 52.52658 -1.78130 17094 ft 247 kts 149°
2026-05-04 14:53 52.51206 -1.76643 16768 ft 245 kts 149°
2026-05-04 14:53 52.49762 -1.75165 16435 ft 244 kts 149°
2026-05-04 14:53 52.48327 -1.73698 16121 ft 242 kts 149°
2026-05-04 14:53 52.46899 -1.72238 15805 ft 241 kts 149°
2026-05-04 14:54 52.45479 -1.70789 15491 ft 240 kts 149°
2026-05-04 14:54 52.44083 -1.69365 15183 ft 239 kts 149°
2026-05-04 14:54 52.42675 -1.67931 14874 ft 238 kts 149°
2026-05-04 14:54 52.41272 -1.66501 14581 ft 237 kts 149°
2026-05-04 14:55 52.39874 -1.65077 14291 ft 236 kts 150°
2026-05-04 14:55 52.38482 -1.63662 13994 ft 235 kts 150°
2026-05-04 14:55 52.37094 -1.62251 13695 ft 236 kts 150°
2026-05-04 14:55 52.35645 -1.60783 13347 ft 252 kts 150°
2026-05-04 14:56 52.34112 -1.59231 12775 ft 262 kts 150°
2026-05-04 14:56 52.32579 -1.57674 12573 ft 256 kts 150°
2026-05-04 14:56 52.31080 -1.56153 12549 ft 253 kts 150°
2026-05-04 14:56 52.29582 -1.54635 12543 ft 253 kts 150°
2026-05-04 14:57 52.28047 -1.53086 12555 ft 274 kts 150°
2026-05-04 14:57 52.26338 -1.51365 12541 ft 310 kts 150°
2026-05-04 14:57 52.24405 -1.49420 12539 ft 344 kts 149°
2026-05-04 14:57 52.22278 -1.47275 12540 ft 374 kts 149°
2026-05-04 14:58 52.20052 -1.44881 12532 ft 383 kts 144°
2026-05-04 14:58 52.18040 -1.42238 12551 ft 360 kts 141°
2026-05-04 14:58 52.16190 -1.39680 12555 ft 339 kts 140°
2026-05-04 14:58 52.14470 -1.37258 12549 ft 314 kts 140°
2026-05-04 14:59 52.12897 -1.35025 12550 ft 288 kts 140°
2026-05-04 14:59 52.11448 -1.32962 12549 ft 265 kts 141°
2026-05-04 14:59 52.08784 -1.29166 12550 ft 254 kts 141°
2026-05-04 15:00 52.07459 -1.27281 12545 ft 252 kts 141°
2026-05-04 15:00 52.06144 -1.25408 12550 ft 251 kts 141°
2026-05-04 15:00 52.04833 -1.23540 12547 ft 251 kts 141°
2026-05-04 15:01 52.02233 -1.19835 12542 ft 244 kts 141°
2026-05-04 15:01 52.00969 -1.18036 12546 ft 242 kts 141°
2026-05-04 15:01 51.99710 -1.16246 12547 ft 242 kts 141°
2026-05-04 15:01 51.98443 -1.14447 12547 ft 242 kts 141°
2026-05-04 15:02 51.97173 -1.12645 12542 ft 242 kts 141°
2026-05-04 15:02 51.95899 -1.10848 12543 ft 243 kts 141°
2026-05-04 15:02 51.94620 -1.09073 12543 ft 243 kts 142°
2026-05-04 15:02 51.93336 -1.07302 12545 ft 243 kts 142°
2026-05-04 15:03 51.92050 -1.05530 12546 ft 243 kts 142°
2026-05-04 15:03 51.90760 -1.03756 12543 ft 243 kts 142°
2026-05-04 15:03 51.89489 -1.02008 12538 ft 243 kts 142°
2026-05-04 15:03 51.88192 -1.00225 12530 ft 239 kts 142°
2026-05-04 15:04 51.86945 -0.98512 12404 ft 237 kts 142°
2026-05-04 15:04 51.85701 -0.96771 12222 ft 237 kts 136°
2026-05-04 15:04 51.84751 -0.94577 11971 ft 239 kts 121°
2026-05-04 15:04 51.83994 -0.92174 11681 ft 239 kts 118°
2026-05-04 15:05 51.83270 -0.89749 11348 ft 239 kts 118°
2026-05-04 15:05 51.82546 -0.87327 11020 ft 239 kts 118°
2026-05-04 15:05 51.81817 -0.84910 10702 ft 239 kts 118°
2026-05-04 15:05 51.81084 -0.82498 10392 ft 239 kts 118°
2026-05-04 15:06 51.80352 -0.80097 10088 ft 238 kts 118°
2026-05-04 15:06 51.79632 -0.77741 9798 ft 237 kts 118°
2026-05-04 15:06 51.78898 -0.75345 9473 ft 236 kts 118°
2026-05-04 15:07 51.77450 -0.70633 8867 ft 233 kts 118°
2026-05-04 15:07 51.76731 -0.68297 8566 ft 231 kts 118°
2026-05-04 15:07 51.76020 -0.65990 8275 ft 229 kts 118°
2026-05-04 15:07 51.75343 -0.63794 7992 ft 227 kts 118°
2026-05-04 15:08 51.74613 -0.61431 7714 ft 226 kts 118°
2026-05-04 15:08 51.73915 -0.59173 7439 ft 224 kts 119°
2026-05-04 15:08 51.73220 -0.56928 7171 ft 224 kts 118°
2026-05-04 15:08 51.72423 -0.54822 7063 ft 222 kts 133°
2026-05-04 15:09 51.71345 -0.53041 7058 ft 223 kts 139°
2026-05-04 15:09 51.70200 -0.51348 7073 ft 223 kts 141°
2026-05-04 15:09 51.69053 -0.49677 7059 ft 223 kts 140°
2026-05-04 15:10 51.66754 -0.46316 6853 ft 224 kts 140°
2026-05-04 15:10 51.65572 -0.44587 6309 ft 236 kts 139°
2026-05-04 15:10 51.63020 -0.40841 4940 ft 261 kts 138°
2026-05-04 15:11 51.61670 -0.38779 4159 ft 274 kts 131°
2026-05-04 15:11 51.60541 -0.36286 3361 ft 286 kts 121°
2026-05-04 15:11 51.59539 -0.33482 2766 ft 290 kts 116°
2026-05-04 15:11 51.58655 -0.30614 2536 ft 281 kts 113°
2026-05-04 15:12 51.57861 -0.27836 2496 ft 267 kts 112°
2026-05-04 15:12 51.57124 -0.25180 2487 ft 252 kts 112°
2026-05-04 15:12 51.56431 -0.22683 2491 ft 237 kts 112°
2026-05-04 15:12 51.55777 -0.20345 2486 ft 222 kts 112°
2026-05-04 15:13 51.55161 -0.18168 2483 ft 207 kts 112°
2026-05-04 15:13 51.54554 -0.16124 2509 ft 197 kts 119°
2026-05-04 15:13 51.53584 -0.14796 2487 ft 183 kts 160°
2026-05-04 15:13 51.52394 -0.14674 2482 ft 164 kts 187°
2026-05-04 15:14 51.51292 -0.14982 2498 ft 159 kts 191°
2026-05-04 15:14 51.50215 -0.15367 2487 ft 159 kts 193°
2026-05-04 15:14 51.49136 -0.15772 2491 ft 159 kts 192°
2026-05-04 15:14 51.48060 -0.16182 2487 ft 159 kts 194°
2026-05-04 15:15 51.47068 -0.16913 2473 ft 158 kts 224°
2026-05-04 15:15 51.46522 -0.18370 2484 ft 153 kts 268°
2026-05-04 15:15 51.46664 -0.20014 2902 ft 152 kts 276°
2026-05-04 15:16 51.46574 -0.23415 2683 ft 156 kts 270°
2026-05-04 15:16 51.46550 -0.25109 2440 ft 147 kts 271°
2026-05-04 15:16 51.46542 -0.28253 2013 ft 137 kts 272°
2026-05-04 15:17 51.46536 -0.29788 1821 ft 138 kts 272°
2026-05-04 15:17 51.46526 -0.32864 1462 ft 138 kts 272°
2026-05-04 15:17 51.46522 -0.34392 1270 ft 137 kts 272°
2026-05-04 15:18 51.46517 -0.35915 1078 ft 136 kts 271°
2026-05-04 15:18 51.46512 -0.37436 880 ft 137 kts 272°
2026-05-04 15:18 51.46507 -0.38955 690 ft 135 kts 272°
2026-05-04 15:19 51.46498 -0.41928 318 ft 134 kts 274°
2026-05-04 15:19 51.46493 -0.43417 136 ft 134 kts 272°
2026-05-04 15:19 51.46488 -0.45419 90 ft 12 kts 269°
2026-05-04 15:20 51.46485 -0.45583 92 ft 23 kts 267°
2026-05-04 15:20 51.46431 -0.45718 90 ft 12 kts 156°
2026-05-04 15:20 51.46379 -0.45663 91 ft 0 kts 146°
2026-05-04 15:20 51.46378 -0.45662 91 ft 1 kts 146°
2026-05-04 15:21 51.46350 -0.45629 91 ft 9 kts 143°
2026-05-04 15:21 51.46316 -0.45517 93 ft 15 kts 92°
2026-05-04 15:21 51.46318 -0.45009 92 ft 29 kts 89°
2026-05-04 15:22 51.46320 -0.44662 92 ft 33 kts 82°
2026-05-04 15:22 51.46328 -0.44320 93 ft 22 kts 88°
2026-05-04 15:22 51.46191 -0.44310 89 ft 3 kts 277°